Rome Ciampino, Italy

4:42 AM CEST on October 20, 2017 (GMT +0200)
Ciampino

Weather History for LIRA - February, 2013

Change the Weather History Date:

Monday, February 4, 2013

  Actual Average Record
Temperature  
Mean Temperature 42 °F -  
Max Temperature 53 °F 56 °F 61 °F (2017)
Min Temperature 32 °F 38 °F 28 °F (2012)
Degree Days  
Heating Degree Days 22    
Moisture  
Dew Point 28 °F    
Average Humidity 60    
Maximum Humidity 81    
Minimum Humidity 30    
Precipitation  
Precipitation 0.00 in 0.12 in - ()
Sea Level Pressure  
Sea Level Pressure 30.05 in    
Wind  
Wind Speed 4 mph ()    
Max Wind Speed 9 mph    
Max Gust Speed -    
Visibility 6.2 miles    
Events      
Averages and records for this station are not official NWS values.
T = Trace of Precipitation, MM = Missing Value Source: Averaged Metar Reports

Daily Weather History Graph

Daily Weather History Graph

Search for Another Location

Airport or City:

Trip Planner

Search our weather history database for the weather conditions in past years. The results will help you decide how hot, cold, wet, or windy it might be!

Date:

Astronomy

Feb. 04, 2013 Rise Set
Actual Time 7:18 AM CET 5:29 PM CET
Civil Twilight 6:49 AM CET 5:58 PM CET
Nautical Twilight 6:16 AM CET 6:31 PM CET
Astronomical Twilight 5:44 AM CET 7:04 PM CET
Moon 1:36 AM CET (2/4) 11:37 AM CET (2/4)
Length of Visible Light 11h 08m
Length of Day
10h 10m
Last Quarter, 40% of the Moon is Illuminated
Feb 4
Last Quarter
Feb 10
New
Feb 17
First Quarter
Feb 25
Full
Mar 4
Last Quarter

Hourly Weather History & Observations

Time (CET) Temp. Windchill Dew Point Humidity Pressure Visibility Wind Dir Wind Speed Gust Speed Precip Events Conditions
12:15 AM 37.4 °F 34.9 °F 26.6 °F 65% 29.95 in - NE 3.5 mph - N/A   Clear
12:45 AM 37.4 °F - 26.6 °F 65% 29.95 in - NNE 2.3 mph - N/A   Clear
1:15 AM 37.4 °F 34.9 °F 26.6 °F 65% 29.95 in - NE 3.5 mph - N/A   Clear
1:45 AM 37.4 °F 34.9 °F 26.6 °F 65% 29.95 in - NE 3.5 mph - N/A   Clear
2:15 AM 37.4 °F 32.8 °F 26.6 °F 65% 29.98 in - NNE 5.8 mph - N/A   Clear
2:45 AM 35.6 °F 30.7 °F 23.0 °F 60% 29.98 in - NE 5.8 mph - N/A   Clear
3:15 AM 35.6 °F 30.7 °F 23.0 °F 60% 29.98 in - NE 5.8 mph - N/A   Clear
3:45 AM 35.6 °F 32.8 °F 24.8 °F 65% 29.98 in - NE 3.5 mph - N/A   Clear
4:15 AM 33.8 °F 29.6 °F 23.0 °F 65% 29.98 in - NE 4.6 mph - N/A   Clear
4:45 AM 33.8 °F 30.8 °F 23.0 °F 65% 29.98 in - NE 3.5 mph - N/A   Clear
5:15 AM 33.8 °F 29.6 °F 24.8 °F 70% 30.01 in - ENE 4.6 mph - N/A   Clear
5:45 AM 33.8 °F 28.6 °F 24.8 °F 70% 30.01 in - NE 5.8 mph - N/A   Clear
6:15 AM 33.8 °F 29.6 °F 23.0 °F 65% 30.01 in - NE 4.6 mph - N/A   Clear
6:45 AM 32.0 °F 28.7 °F 23.0 °F 69% 30.04 in - ENE 3.5 mph - N/A   Clear
7:15 AM 32.0 °F 27.5 °F 23.0 °F 69% 30.04 in - NE 4.6 mph - N/A   Clear
7:45 AM 32.0 °F 26.4 °F 23.0 °F 69% 30.06 in - NE 5.8 mph - N/A   Clear
8:15 AM 35.6 °F 31.7 °F 24.8 °F 65% 30.06 in - NE 4.6 mph - N/A   Clear
8:45 AM 37.4 °F - 28.4 °F 70% 30.06 in - NE 2.3 mph - N/A   Clear
9:15 AM 39.2 °F 35.9 °F 28.4 °F 65% 30.09 in - NNE 4.6 mph - N/A   Clear
9:45 AM 41.0 °F 37.1 °F 28.4 °F 61% 30.09 in - NNE 5.8 mph - N/A   Clear
10:15 AM 41.0 °F 36.4 °F 26.6 °F 57% 30.09 in - NE 6.9 mph - N/A   Clear
11:45 AM 46.4 °F 45.2 °F 24.8 °F 43% 30.09 in - North 3.5 mph - N/A   Clear
12:15 PM 50.0 °F - 24.8 °F 37% 30.09 in - NE 2.3 mph - N/A   Clear
12:45 PM 50.0 °F - 21.2 °F 32% 30.06 in - NNE 4.6 mph - N/A   Clear
1:15 PM 51.8 °F - 21.2 °F 30% 30.06 in - North 6.9 mph - N/A   Clear
1:45 PM 51.8 °F - 21.2 °F 30% 30.06 in - NNW 6.9 mph - N/A   Clear
2:15 PM 53.6 °F - 23.0 °F 30% 30.06 in - NW 6.9 mph - N/A   Clear
2:45 PM 53.6 °F - 23.0 °F 30% 30.06 in - NNW 6.9 mph - N/A   Clear
3:15 PM 53.6 °F - 24.8 °F 33% 30.06 in - NNW 5.8 mph - N/A   Clear
3:45 PM 51.8 °F - 26.6 °F 38% 30.06 in - West 9.2 mph - N/A   Clear
4:15 PM 51.8 °F - 30.2 °F 44% 30.06 in - West 6.9 mph - N/A   Clear
4:45 PM 51.8 °F - 33.8 °F 50% 30.06 in - West 5.8 mph - N/A   Clear
5:15 PM 50.0 °F - 33.8 °F 54% 30.06 in - West 3.5 mph - N/A   Clear
5:45 PM 48.2 °F - 33.8 °F 58% 30.06 in - WSW 2.3 mph - N/A   Clear
6:15 PM 44.6 °F - 33.8 °F 66% 30.09 in - South 1.2 mph - N/A   Clear
6:45 PM 44.6 °F - 33.8 °F 66% 30.09 in 6.2 mi Calm Calm - N/A   Partly Cloudy
7:15 PM 42.8 °F 40.1 °F 33.8 °F 70% 30.09 in 6.2 mi SE 4.6 mph - N/A   Partly Cloudy
7:45 PM 41.0 °F - 33.8 °F 76% 30.09 in - East 2.3 mph - N/A   Clear
8:15 PM 41.0 °F - 33.8 °F 76% 30.12 in - ESE 2.3 mph - N/A   Clear
8:45 PM 41.0 °F 39.0 °F 33.8 °F 76% 30.12 in - East 3.5 mph - N/A   Clear
9:15 PM 41.0 °F 38.0 °F 33.8 °F 76% 30.12 in - East 4.6 mph - N/A   Clear
9:45 PM 41.0 °F 39.0 °F 32.0 °F 70% 30.12 in - ESE 3.5 mph - N/A   Clear
10:15 PM 41.0 °F 39.0 °F 33.8 °F 76% 30.12 in - ESE 3.5 mph - N/A   Clear
10:45 PM 39.2 °F 35.9 °F 33.8 °F 81% 30.12 in - East 4.6 mph - N/A   Clear
11:15 PM 39.2 °F 37.0 °F 33.8 °F 81% 30.12 in - ESE 3.5 mph - N/A   Clear
11:45 PM 39.2 °F 34.2 °F 33.8 °F 81% 30.09 in - East 6.9 mph - N/A   Clear